| time (UTC) | temp F | wind direction | speed MPH | gust MPH | rain 1hr in | rain 24hr in | rain mn in | humidity % | barometer mb |
| 20260505230514 | 75 | 90 | 0.0 | 6.0 | 0.00 | 0.00 | 0.00 | 47 | 1028.8 |
| 20260505230013 | 75 | 82 | 0.0 | 4.0 | 0.00 | 0.00 | 0.00 | 48 | 1028.8 |
| 20260505225512 | 75 | 217 | 0.0 | 4.0 | 0.00 | 0.00 | 0.00 | 47 | 1028.7 |
| 20260505225011 | 75 | 87 | 0.0 | 3.0 | 0.00 | 0.00 | 0.00 | 46 | 1028.7 |
| 20260505224512 | 76 | 78 | 0.0 | 2.0 | 0.00 | 0.00 | 0.00 | 47 | 1028.7 |
| 20260505224011 | 76 | 93 | 0.0 | 2.0 | 0.00 | 0.00 | 0.00 | 46 | 1028.7 |
| 20260505223519 | 76 | 105 | 0.0 | 6.0 | 0.00 | 0.00 | 0.00 | 47 | 1028.7 |
| 20260505223011 | 76 | 86 | 0.0 | 6.0 | 0.00 | 0.00 | 0.00 | 46 | 1028.7 |
| 20260505222513 | 76 | 80 | 1.0 | 8.0 | 0.00 | 0.00 | 0.00 | 46 | 1028.8 |
| 20260505222011 | 76 | 101 | 2.0 | 8.0 | 0.00 | 0.00 | 0.00 | 45 | 1028.8 |
| 20260505221511 | 76 | 91 | 1.0 | 8.0 | 0.00 | 0.00 | 0.00 | 46 | 1028.8 |
| 20260505221016 | 76 | 94 | 2.0 | 6.0 | 0.00 | 0.00 | 0.00 | 45 | 1028.8 |
| 20260505220510 | 76 | 198 | 1.0 | 6.0 | 0.00 | 0.00 | 0.00 | 44 | 1028.7 |
| 20260505220010 | 76 | 62 | 1.0 | 7.0 | 0.00 | 0.00 | 0.00 | 45 | 1028.6 |
| 20260505215509 | 77 | 249 | 1.0 | 10.0 | 0.00 | 0.00 | 0.00 | 44 | 1028.5 |
| 20260505215011 | 77 | 100 | 1.0 | 10.0 | 0.00 | 0.00 | 0.00 | 46 | 1028.5 |
| 20260505214510 | 77 | 132 | 1.0 | 6.0 | 0.00 | 0.00 | 0.00 | 44 | 1028.4 |
| 20260505214009 | 77 | 257 | 0.0 | 5.0 | 0.00 | 0.00 | 0.00 | 44 | 1028.5 |
| 20260505213508 | 77 | 82 | 1.0 | 6.0 | 0.00 | 0.00 | 0.00 | 43 | 1028.3 |
| 20260505213008 | 77 | 74 | 2.0 | 10.0 | 0.00 | 0.00 | 0.00 | 43 | 1028.3 |
| 20260505212511 | 77 | 103 | 2.0 | 10.0 | 0.00 | 0.00 | 0.00 | 42 | 1028.3 |
| 20260505212009 | 77 | 234 | 2.0 | 6.0 | 0.00 | 0.00 | 0.00 | 43 | 1028.3 |
| 20260505211508 | 77 | 84 | 1.0 | 5.0 | 0.00 | 0.00 | 0.00 | 43 | 1028.3 |
| 20260505211008 | 77 | 89 | 1.0 | 4.0 | 0.00 | 0.00 | 0.00 | 42 | 1028.5 |
| 20260505210508 | 77 | 74 | 1.0 | 8.0 | 0.00 | 0.00 | 0.00 | 43 | 1028.4 |
| 20260505210007 | 77 | 98 | 0.0 | 13.0 | 0.00 | 0.00 | 0.00 | 42 | 1028.4 |
| 20260505205507 | 78 | 90 | 1.0 | 13.0 | 0.00 | 0.00 | 0.00 | 41 | 1028.3 |
| 20260505205007 | 78 | 106 | 3.0 | 11.0 | 0.00 | 0.00 | 0.00 | 41 | 1028.2 |
| 20260505204506 | 78 | 89 | 3.0 | 11.0 | 0.00 | 0.00 | 0.00 | 42 | 1028.3 |
| 20260505204012 | 78 | 86 | 3.0 | 12.0 | 0.00 | 0.00 | 0.00 | 40 | 1028.3 |
| 20260505203506 | 78 | 85 | 1.0 | 12.0 | 0.00 | 0.00 | 0.00 | 40 | 1028.2 |
| 20260505203015 | 78 | 56 | 4.0 | 9.0 | 0.00 | 0.00 | 0.00 | 41 | 1028.2 |
| 20260505202506 | 78 | 86 | 2.0 | 10.0 | 0.00 | 0.00 | 0.00 | 42 | 1028.2 |
| 20260505202006 | 78 | 104 | 3.0 | 11.0 | 0.00 | 0.00 | 0.00 | 41 | 1028.2 |
| 20260505201505 | 78 | 103 | 5.0 | 14.0 | 0.00 | 0.00 | 0.00 | 40 | 1028.2 |
| 20260505201005 | 78 | 86 | 5.0 | 14.0 | 0.00 | 0.00 | 0.00 | 41 | 1028.3 |
| 20260505200505 | 78 | 343 | 2.0 | 12.0 | 0.00 | 0.00 | 0.00 | 42 | 1028.3 |
| 20260505200004 | 79 | 67 | 4.0 | 14.0 | 0.00 | 0.00 | 0.00 | 42 | 1028.3 |
| 20260505195506 | 79 | 91 | 2.0 | 14.0 | 0.00 | 0.00 | 0.00 | 40 | 1028.3 |
| 20260505195003 | 79 | 88 | 2.0 | 11.0 | 0.00 | 0.00 | 0.00 | 41 | 1028.4 |
| 20260505194503 | 80 | 82 | 3.0 | 10.0 | 0.00 | 0.00 | 0.00 | 40 | 1028.3 |
| 20260505194004 | 80 | 63 | 3.0 | 10.0 | 0.00 | 0.00 | 0.00 | 40 | 1028.3 |
| 20260505193502 | 80 | 69 | 3.0 | 13.0 | 0.00 | 0.00 | 0.00 | 42 | 1028.3 |
| 20260505193002 | 80 | 101 | 4.0 | 13.0 | 0.00 | 0.00 | 0.00 | 40 | 1028.3 |
| 20260505192503 | 80 | 111 | 3.0 | 12.0 | 0.00 | 0.00 | 0.00 | 42 | 1028.4 |
| 20260505192101 | 80 | 144 | 4.0 | 12.0 | 0.00 | 0.00 | 0.00 | 40 | 1028.3 |
| 20260505191600 | 81 | 110 | 2.0 | 10.0 | 0.00 | 0.00 | 0.00 | 43 | 1028.5 |
| 20260505191059 | 80 | 269 | 3.0 | 10.0 | 0.00 | 0.00 | 0.00 | 43 | 1028.4 |
| 20260505190602 | 80 | 33 | 2.0 | 14.0 | 0.00 | 0.00 | 0.00 | 44 | 1028.6 |
| 20260505190057 | 80 | 258 | 3.0 | 15.0 | 0.00 | 0.00 | 0.00 | 44 | 1028.8 |
| 20260505185557 | 80 | 70 | 4.0 | 15.0 | 0.00 | 0.00 | 0.00 | 43 | 1028.8 |
| 20260505185056 | 80 | 84 | 4.0 | 16.0 | 0.00 | 0.00 | 0.00 | 47 | 1029.1 |
| 20260505184556 | 80 | 243 | 3.0 | 19.0 | 0.00 | 0.00 | 0.00 | 46 | 1029.1 |
| 20260505184055 | 80 | 282 | 4.0 | 19.0 | 0.00 | 0.00 | 0.00 | 46 | 1029.2 |
| 20260505183557 | 80 | 274 | 3.0 | 17.0 | 0.00 | 0.00 | 0.00 | 47 | 1029.3 |
| 20260505183055 | 80 | 102 | 5.0 | 13.0 | 0.00 | 0.00 | 0.00 | 45 | 1029.4 |
| 20260505182553 | 80 | 105 | 3.0 | 10.0 | 0.00 | 0.00 | 0.00 | 44 | 1029.6 |
| 20260505182052 | 79 | 86 | 2.0 | 12.0 | 0.00 | 0.00 | 0.00 | 50 | 1029.6 |
| 20260505181552 | 79 | 251 | 3.0 | 12.0 | 0.00 | 0.00 | 0.00 | 46 | 1029.7 |
| 20260505181051 | 78 | 96 | 3.0 | 13.0 | 0.00 | 0.00 | 0.00 | 46 | 1029.9 |
| 20260505180555 | 78 | 237 | 3.0 | 13.0 | 0.00 | 0.00 | 0.00 | 47 | 1029.9 |
| 20260505180105 | 79 | 86 | 4.0 | 11.0 | 0.00 | 0.00 | 0.00 | 46 | 1030.0 |
| 20260505175550 | 79 | 97 | 2.0 | 11.0 | 0.00 | 0.00 | 0.00 | 46 | 1030.0 |
| 20260505175050 | 78 | 49 | 2.0 | 11.0 | 0.00 | 0.00 | 0.00 | 45 | 1029.9 |
| 20260505174601 | 79 | 94 | 2.0 | 10.0 | 0.00 | 0.00 | 0.00 | 45 | 1029.9 |
| 20260505174050 | 79 | 77 | 4.0 | 11.0 | 0.00 | 0.00 | 0.00 | 47 | 1030.0 |
| 20260505173549 | 80 | 188 | 3.0 | 17.0 | 0.00 | 0.00 | 0.00 | 45 | 1029.9 |
| 20260505173048 | 79 | 82 | 3.0 | 17.0 | 0.00 | 0.00 | 0.00 | 46 | 1030.0 |
| 20260505172547 | 79 | 86 | 4.0 | 13.0 | 0.00 | 0.00 | 0.00 | 48 | 1029.8 |
| 20260505172046 | 79 | 84 | 2.0 | 10.0 | 0.00 | 0.00 | 0.00 | 46 | 1030.0 |
| 20260505171546 | 79 | 238 | 4.0 | 10.0 | 0.00 | 0.00 | 0.00 | 47 | 1030.1 |
| 20260505171044 | 78 | 254 | 5.0 | 12.0 | 0.00 | 0.00 | 0.00 | 48 | 1029.9 |
| 20260505170547 | 78 | 220 | 6.0 | 12.0 | 0.00 | 0.00 | 0.00 | 48 | 1030.0 |
| 20260505170043 | 78 | 103 | 3.0 | 10.0 | 0.00 | 0.00 | 0.00 | 50 | 1030.2 |
| 20260505165542 | 78 | 71 | 4.0 | 10.0 | 0.00 | 0.00 | 0.00 | 50 | 1030.4 |
| 20260505165041 | 77 | 70 | 3.0 | 12.0 | 0.00 | 0.00 | 0.00 | 50 | 1030.5 |
| 20260505164542 | 78 | 115 | 3.0 | 12.0 | 0.00 | 0.00 | 0.00 | 48 | 1030.5 |
| 20260505164040 | 78 | 81 | 4.0 | 10.0 | 0.00 | 0.00 | 0.00 | 53 | 1030.8 |
| 20260505163541 | 78 | 112 | 4.0 | 11.0 | 0.00 | 0.00 | 0.00 | 50 | 1030.7 |
| 20260505163039 | 78 | 63 | 3.0 | 11.0 | 0.00 | 0.00 | 0.00 | 50 | 1030.9 |
| 20260505162539 | 78 | 77 | 3.0 | 11.0 | 0.00 | 0.00 | 0.00 | 48 | 1030.9 |
| 20260505162038 | 78 | 89 | 5.0 | 12.0 | 0.00 | 0.00 | 0.00 | 49 | 1030.9 |
| 20260505161539 | 78 | 110 | 2.0 | 12.0 | 0.00 | 0.00 | 0.00 | 50 | 1031.0 |
| 20260505161038 | 78 | 240 | 1.0 | 8.0 | 0.00 | 0.00 | 0.00 | 51 | 1031.1 |
| 20260505160537 | 78 | 108 | 1.0 | 11.0 | 0.00 | 0.00 | 0.00 | 51 | 1031.1 |
| 20260505153033 | 76 | 113 | 4.0 | 12.0 | 0.00 | 0.00 | 0.00 | 52 | 1031.5 |
| 20260505152535 | 76 | 275 | 4.0 | 12.0 | 0.00 | 0.00 | 0.00 | 50 | 1031.3 |
| 20260505152031 | 76 | 84 | 4.0 | 11.0 | 0.00 | 0.00 | 0.00 | 50 | 1031.5 |
| 20260505151533 | 76 | 77 | 3.0 | 11.0 | 0.00 | 0.00 | 0.00 | 52 | 1031.4 |
| 20260505151030 | 75 | 88 | 2.0 | 19.0 | 0.00 | 0.00 | 0.00 | 53 | 1031.5 |
| 20260505150531 | 75 | 68 | 5.0 | 19.0 | 0.00 | 0.00 | 0.00 | 51 | 1031.5 |
| 20260505140521 | 74 | 94 | 2.0 | 8.0 | 0.00 | 0.00 | 0.00 | 56 | 1031.5 |
| 20260505125007 | 69 | 86 | 2.0 | 9.0 | 0.00 | 0.00 | 0.00 | 60 | 1032.1 |
| 20260505124507 | 69 | 86 | 0.0 | 5.0 | 0.00 | 0.00 | 0.00 | 62 | 1032.2 |
| 20260505124007 | 69 | 80 | 0.0 | 6.0 | 0.00 | 0.00 | 0.00 | 62 | 1032.2 |
| 20260505123504 | 68 | 122 | 2.0 | 6.0 | 0.00 | 0.00 | 0.00 | 61 | 1032.3 |
| 20260505123004 | 68 | 80 | 1.0 | 3.0 | 0.00 | 0.00 | 0.00 | 63 | 1032.3 |
| 20260505122503 | 68 | 241 | 0.0 | 4.0 | 0.00 | 0.00 | 0.00 | 62 | 1032.0 |
| 20260505122001 | 67 | 86 | 0.0 | 4.0 | 0.00 | 0.00 | 0.00 | 63 | 1031.9 |
| 20260505121501 | 67 | 90 | 0.0 | 4.0 | 0.00 | 0.00 | 0.00 | 65 | 1032.2 |
| 20260505121100 | 66 | 91 | 0.0 | 0.0 | 0.00 | 0.00 | 0.00 | 64 | 1032.2 |
| 20260505120559 | 66 | 91 | 0.0 | 0.0 | 0.00 | 0.00 | 0.00 | 64 | 1032.0 |
| 20260505120058 | 65 | 91 | 0.0 | 0.0 | 0.00 | 0.00 | 0.00 | 67 | 1032.1 |
| 20260505115557 | 64 | 91 | 0.0 | 0.0 | 0.00 | 0.00 | 0.00 | 68 | 1032.1 |
| 20260505115057 | 64 | 91 | 0.0 | 0.0 | 0.00 | 0.00 | 0.00 | 68 | 1032.2 |
| 20260505114557 | 64 | 91 | 0.0 | 0.0 | 0.00 | 0.00 | 0.00 | 67 | 1032.2 |
| 20260505114057 | 65 | 77 | 0.0 | 0.0 | 0.00 | 0.00 | 0.00 | 67 | 1032.2 |
| 20260505113557 | 64 | 77 | 0.0 | 0.0 | 0.00 | 0.00 | 0.00 | 73 | 1032.2 |
| 20260505113110 | 63 | 77 | 0.0 | 0.0 | 0.00 | 0.00 | 0.00 | 73 | 1032.1 |
| 20260505112554 | 62 | 77 | 0.0 | 0.0 | 0.00 | 0.00 | 0.00 | 71 | 1032.1 |
| 20260505112054 | 62 | 77 | 0.0 | 0.0 | 0.00 | 0.00 | 0.00 | 72 | 1032.0 |
| 20260505111554 | 62 | 77 | 0.0 | 0.0 | 0.00 | 0.00 | 0.00 | 72 | 1032.0 |
| 20260505111054 | 63 | 77 | 0.0 | 0.0 | 0.00 | 0.00 | 0.00 | 71 | 1031.8 |
| 20260505110556 | 62 | 77 | 0.0 | 0.0 | 0.00 | 0.00 | 0.00 | 73 | 1031.9 |
| 20260505102049 | 57 | 77 | 0.0 | 0.0 | 0.00 | 0.00 | 0.00 | 76 | 1031.7 |
| 20260505101549 | 57 | 85 | 0.0 | 0.0 | 0.00 | 0.00 | 0.00 | 75 | 1031.4 |
| 20260505101049 | 58 | 86 | 0.0 | 1.0 | 0.00 | 0.00 | 0.00 | 75 | 1031.5 |
| 20260505100548 | 57 | 89 | 0.0 | 1.0 | 0.00 | 0.00 | 0.00 | 75 | 1031.5 |
| 20260505100051 | 57 | 89 | 0.0 | 1.0 | 0.00 | 0.00 | 0.00 | 76 | 1031.4 |
| 20260505095547 | 56 | 87 | 0.0 | 1.0 | 0.00 | 0.00 | 0.00 | 77 | 1031.4 |
| 20260505095048 | 56 | 87 | 0.0 | 1.0 | 0.00 | 0.00 | 0.00 | 78 | 1031.5 |
| 20260505094548 | 56 | 86 | 0.0 | 0.0 | 0.00 | 0.00 | 0.00 | 77 | 1031.4 |
| 20260505094047 | 56 | 86 | 0.0 | 0.0 | 0.00 | 0.00 | 0.00 | 77 | 1031.4 |
| 20260505093547 | 55 | 86 | 0.0 | 0.0 | 0.00 | 0.00 | 0.00 | 78 | 1031.3 |
| 20260505093048 | 55 | 86 | 0.0 | 0.0 | 0.00 | 0.00 | 0.00 | 78 | 1031.2 |
| 20260505092546 | 55 | 86 | 0.0 | 0.0 | 0.00 | 0.00 | 0.00 | 77 | 1031.2 |
| 20260505092045 | 56 | 86 | 0.0 | 0.0 | 0.00 | 0.00 | 0.00 | 77 | 1031.2 |
| 20260505091604 | 56 | 86 | 0.0 | 0.0 | 0.00 | 0.00 | 0.00 | 76 | 1031.1 |
| 20260505091042 | 57 | 86 | 0.0 | 0.0 | 0.00 | 0.00 | 0.00 | 75 | 1031.2 |
| 20260505090541 | 57 | 86 | 0.0 | 0.0 | 0.00 | 0.00 | 0.00 | 74 | 1031.3 |
| 20260505090044 | 57 | 86 | 0.0 | 0.0 | 0.00 | 0.00 | 0.00 | 74 | 1031.3 |
| 20260505085541 | 58 | 86 | 0.0 | 0.0 | 0.00 | 0.00 | 0.00 | 73 | 1031.3 |
| 20260505085039 | 58 | 86 | 0.0 | 0.0 | 0.00 | 0.00 | 0.00 | 73 | 1031.3 |
| 20260505084538 | 58 | 86 | 0.0 | 0.0 | 0.00 | 0.00 | 0.00 | 72 | 1031.2 |
| 20260505084036 | 58 | 86 | 0.0 | 0.0 | 0.00 | 0.00 | 0.00 | 72 | 1031.2 |
| 20260505083536 | 58 | 86 | 0.0 | 0.0 | 0.00 | 0.00 | 0.00 | 71 | 1031.3 |
| 20260505083035 | 59 | 86 | 0.0 | 0.0 | 0.00 | 0.00 | 0.00 | 70 | 1031.3 |
| 20260505082534 | 59 | 86 | 0.0 | 0.0 | 0.00 | 0.00 | 0.00 | 69 | 1031.3 |
| 20260505082033 | 60 | 86 | 0.0 | 0.0 | 0.00 | 0.00 | 0.00 | 68 | 1031.3 |
| 20260505081537 | 61 | 86 | 0.0 | 0.0 | 0.00 | 0.00 | 0.00 | 67 | 1031.2 |
| 20260505081033 | 61 | 86 | 0.0 | 3.0 | 0.00 | 0.00 | 0.00 | 66 | 1031.3 |
| 20260505080533 | 62 | 86 | 0.0 | 3.0 | 0.00 | 0.00 | 0.00 | 66 | 1031.3 |
| 20260505080031 | 62 | 79 | 0.0 | 4.0 | 0.00 | 0.00 | 0.00 | 65 | 1031.1 |
| 20260505075532 | 62 | 79 | 0.0 | 4.0 | 0.00 | 0.00 | 0.00 | 65 | 1031.0 |
| 20260505075031 | 62 | 82 | 0.0 | 5.0 | 0.00 | 0.00 | 0.00 | 64 | 1031.0 |
| 20260505074531 | 62 | 89 | 1.0 | 5.0 | 0.00 | 0.00 | 0.00 | 65 | 1031.0 |
| 20260505074031 | 62 | 92 | 0.0 | 4.0 | 0.00 | 0.00 | 0.00 | 65 | 1031.0 |
| 20260505073531 | 61 | 119 | 0.0 | 3.0 | 0.00 | 0.00 | 0.00 | 66 | 1031.0 |
| 20260505073032 | 61 | 94 | 0.0 | 0.0 | 0.00 | 0.00 | 0.00 | 66 | 1030.9 |
| 20260505072533 | 61 | 90 | 0.0 | 0.0 | 0.00 | 0.00 | 0.00 | 66 | 1031.0 |
| 20260505072029 | 61 | 90 | 0.0 | 0.0 | 0.00 | 0.00 | 0.00 | 66 | 1031.0 |
| 20260505071529 | 61 | 90 | 0.0 | 0.0 | 0.00 | 0.00 | 0.00 | 66 | 1031.1 |
| 20260505071029 | 61 | 90 | 0.0 | 0.0 | 0.00 | 0.00 | 0.00 | 66 | 1031.1 |
| 20260505070532 | 60 | 89 | 0.0 | 0.0 | 0.00 | 0.00 | 0.00 | 65 | 1031.0 |
| 20260505070031 | 60 | 89 | 0.0 | 0.0 | 0.00 | 0.00 | 0.00 | 66 | 1031.1 |
| 20260505065526 | 61 | 89 | 0.0 | 0.0 | 0.00 | 0.00 | 0.00 | 65 | 1031.1 |
| 20260505065024 | 61 | 89 | 0.0 | 0.0 | 0.00 | 0.00 | 0.00 | 64 | 1031.2 |
| 20260505064524 | 61 | 89 | 0.0 | 0.0 | 0.00 | 0.00 | 0.00 | 63 | 1031.4 |
| 20260505064024 | 62 | 89 | 0.0 | 0.0 | 0.00 | 0.00 | 0.00 | 63 | 1031.4 |
| 20260505063524 | 62 | 89 | 0.0 | 0.0 | 0.00 | 0.00 | 0.00 | 62 | 1031.5 |
| 20260505063024 | 62 | 89 | 0.0 | 0.0 | 0.00 | 0.00 | 0.00 | 62 | 1031.5 |
| 20260505062526 | 62 | 88 | 0.0 | 0.0 | 0.00 | 0.00 | 0.00 | 62 | 1031.5 |
| 20260505062023 | 62 | 87 | 0.0 | 0.0 | 0.00 | 0.00 | 0.00 | 63 | 1031.4 |
| 20260505061527 | 61 | 87 | 0.0 | 0.0 | 0.00 | 0.00 | 0.00 | 63 | 1031.4 |
| 20260505061023 | 61 | 94 | 0.0 | 0.0 | 0.00 | 0.00 | 0.00 | 63 | 1031.4 |
| 20260505060526 | 61 | 98 | 0.0 | 0.0 | 0.00 | 0.00 | 0.00 | 62 | 1031.5 |
| 20260505060021 | 62 | 98 | 0.0 | 0.0 | 0.00 | 0.00 | 0.00 | 61 | 1031.6 |
| 20260505055524 | 62 | 101 | 0.0 | 0.0 | 0.00 | 0.00 | 0.00 | 61 | 1031.5 |
| 20260505055020 | 62 | 101 | 0.0 | 2.0 | 0.00 | 0.00 | 0.00 | 61 | 1031.6 |
| 20260505054521 | 62 | 112 | 0.0 | 2.0 | 0.00 | 0.00 | 0.00 | 61 | 1031.6 |
| 20260505054021 | 62 | 87 | 0.0 | 2.0 | 0.00 | 0.00 | 0.00 | 61 | 1031.7 |
| 20260505053520 | 62 | 94 | 0.0 | 2.0 | 0.00 | 0.00 | 0.00 | 61 | 1031.7 |
| 20260505053122 | 62 | 86 | 0.0 | 1.0 | 0.00 | 0.00 | 0.00 | 60 | 1031.7 |
| 20260505052518 | 62 | 72 | 0.0 | 4.0 | 0.00 | 0.00 | 0.00 | 60 | 1031.7 |
| 20260505052018 | 62 | 70 | 0.0 | 4.0 | 0.00 | 0.00 | 0.00 | 59 | 1031.6 |
| 20260505051533 | 62 | 85 | 1.0 | 3.0 | 0.00 | 0.00 | 0.00 | 59 | 1031.7 |
| 20260505051021 | 63 | 82 | 0.0 | 3.0 | 0.00 | 0.00 | 0.00 | 59 | 1031.7 |
| 20260505050517 | 63 | 103 | 0.0 | 4.0 | 0.00 | 0.00 | 0.00 | 59 | 1031.8 |
| 20260505041511 | 62 | 105 | 0.0 | 6.0 | 0.00 | 0.00 | 0.00 | 57 | 1031.5 |
| 20260505041011 | 62 | 84 | 1.0 | 6.0 | 0.00 | 0.00 | 0.00 | 57 | 1031.3 |
| 20260505040510 | 63 | 90 | 0.0 | 5.0 | 0.00 | 0.00 | 0.00 | 57 | 1031.3 |
| 20260505040013 | 63 | 86 | 2.0 | 5.0 | 0.00 | 0.00 | 0.00 | 57 | 1031.2 |
| 20260505035508 | 62 | 96 | 1.0 | 3.0 | 0.00 | 0.00 | 0.00 | 57 | 1031.3 |
| 20260505035008 | 63 | 254 | 0.0 | 6.0 | 0.00 | 0.00 | 0.00 | 57 | 1031.3 |
| 20260505034513 | 63 | 81 | 1.0 | 6.0 | 0.00 | 0.00 | 0.00 | 56 | 1031.2 |
| 20260505034009 | 62 | 102 | 0.0 | 4.0 | 0.00 | 0.00 | 0.00 | 56 | 1031.2 |
| 20260505033508 | 63 | 73 | 0.0 | 4.0 | 0.00 | 0.00 | 0.00 | 56 | 1031.3 |
| 20260505033008 | 62 | 87 | 1.0 | 4.0 | 0.00 | 0.00 | 0.00 | 56 | 1031.3 |
| 20260505032508 | 62 | 357 | 0.0 | 3.0 | 0.00 | 0.00 | 0.00 | 56 | 1031.3 |
| 20260505032007 | 63 | 104 | 0.0 | 4.0 | 0.00 | 0.00 | 0.00 | 56 | 1031.3 |
| 20260505031507 | 63 | 94 | 0.0 | 4.0 | 0.00 | 0.00 | 0.00 | 56 | 1031.2 |
| 20260505031007 | 63 | 101 | 0.0 | 3.0 | 0.00 | 0.00 | 0.00 | 55 | 1031.4 |
| 20260505030508 | 63 | 90 | 0.0 | 2.0 | 0.00 | 0.00 | 0.00 | 55 | 1031.3 |
| 20260505030007 | 63 | 123 | 0.0 | 3.0 | 0.00 | 0.00 | 0.00 | 55 | 1031.2 |
| 20260505025511 | 63 | 79 | 0.0 | 3.0 | 0.00 | 0.00 | 0.00 | 55 | 1031.4 |
| 20260505025008 | 64 | 93 | 0.0 | 4.0 | 0.00 | 0.00 | 0.00 | 54 | 1031.3 |
| 20260505024510 | 64 | 93 | 0.0 | 4.0 | 0.00 | 0.00 | 0.00 | 53 | 1031.3 |
| 20260505024006 | 64 | 86 | 0.0 | 4.0 | 0.00 | 0.00 | 0.00 | 53 | 1031.4 |
| 20260505023506 | 64 | 91 | 0.0 | 5.0 | 0.00 | 0.00 | 0.00 | 53 | 1031.5 |
| 20260505023006 | 65 | 105 | 0.0 | 5.0 | 0.00 | 0.00 | 0.00 | 53 | 1031.5 |
| 20260505022506 | 65 | 91 | 0.0 | 4.0 | 0.00 | 0.00 | 0.00 | 53 | 1031.5 |
| 20260505022006 | 65 | 248 | 0.0 | 6.0 | 0.00 | 0.00 | 0.00 | 53 | 1031.6 |
| 20260505021506 | 65 | 89 | 1.0 | 6.0 | 0.00 | 0.00 | 0.00 | 52 | 1031.6 |
| 20260505021005 | 65 | 101 | 0.0 | 7.0 | 0.00 | 0.00 | 0.00 | 52 | 1031.5 |
| 20260505020505 | 65 | 89 | 1.0 | 9.0 | 0.00 | 0.00 | 0.00 | 52 | 1031.5 |
| 20260505020007 | 65 | 68 | 0.0 | 9.0 | 0.00 | 0.00 | 0.00 | 52 | 1031.4 |
| 20260505015507 | 65 | 99 | 0.0 | 4.0 | 0.00 | 0.00 | 0.00 | 52 | 1031.5 |
| 20260505015005 | 66 | 85 | 0.0 | 5.0 | 0.00 | 0.00 | 0.00 | 51 | 1031.5 |
| 20260505014505 | 66 | 109 | 0.0 | 7.0 | 0.00 | 0.00 | 0.00 | 51 | 1031.4 |
| 20260505014009 | 66 | 96 | 1.0 | 7.0 | 0.00 | 0.00 | 0.00 | 51 | 1031.4 |
| 20260505013504 | 66 | 103 | 1.0 | 4.0 | 0.00 | 0.00 | 0.00 | 51 | 1031.4 |
| 20260505013004 | 66 | 84 | 0.0 | 5.0 | 0.00 | 0.00 | 0.00 | 51 | 1031.4 |
| 20260505012504 | 66 | 70 | 2.0 | 5.0 | 0.00 | 0.00 | 0.00 | 51 | 1031.3 |
| 20260505012006 | 66 | 93 | 1.0 | 6.0 | 0.00 | 0.00 | 0.00 | 51 | 1031.3 |
| 20260505011504 | 66 | 116 | 1.0 | 6.0 | 0.00 | 0.00 | 0.00 | 51 | 1031.1 |
| 20260505011003 | 66 | 94 | 0.0 | 5.0 | 0.00 | 0.00 | 0.00 | 52 | 1031.2 |
| 20260505010503 | 66 | 105 | 1.0 | 5.0 | 0.00 | 0.00 | 0.00 | 51 | 1031.2 |
| 20260505010002 | 66 | 82 | 0.0 | 7.0 | 0.00 | 0.00 | 0.00 | 51 | 1031.1 |
| 20260505005504 | 66 | 75 | 1.0 | 7.0 | 0.00 | 0.00 | 0.00 | 51 | 1031.0 |
| 20260505005003 | 66 | 96 | 0.0 | 7.0 | 0.00 | 0.00 | 0.00 | 51 | 1031.1 |
| 20260505004507 | 66 | 93 | 0.0 | 7.0 | 0.00 | 0.00 | 0.00 | 50 | 1031.0 |
| 20260505004002 | 67 | 101 | 1.0 | 5.0 | 0.00 | 0.00 | 0.00 | 50 | 1031.0 |
| 20260505003502 | 67 | 65 | 1.0 | 6.0 | 0.00 | 0.00 | 0.00 | 50 | 1030.9 |
| 20260505003005 | 67 | 126 | 0.0 | 6.0 | 0.00 | 0.00 | 0.00 | 50 | 1031.0 |
| 20260505002501 | 67 | 110 | 1.0 | 9.0 | 0.00 | 0.00 | 0.00 | 49 | 1030.9 |
| 20260505002001 | 67 | 161 | 0.0 | 13.0 | 0.00 | 0.00 | 0.00 | 50 | 1031.0 |
| 20260505001609 | 67 | 136 | 1.0 | 13.0 | 0.00 | 0.00 | 0.00 | 49 | 1030.8 |
| 20260505001501 | 67 | 266 | 0.0 | 13.0 | 0.00 | 0.00 | 0.00 | 48 | 1030.9 |
| 20260505001100 | 68 | 240 | 1.0 | 13.0 | 0.00 | 0.00 | 0.00 | 49 | 1030.9 |
| 20260505000604 | 68 | 271 | 1.0 | 6.0 | 0.00 | 0.00 | 0.00 | 48 | 1030.8 |
| 20260504235558 | 68 | 99 | 1.0 | 5.0 | 0.00 | 0.00 | 0.00 | 47 | 1030.9 |
| 20260504235058 | 69 | 117 | 0.0 | 6.0 | 0.00 | 0.00 | 0.00 | 47 | 1030.7 |
| 20260504234557 | 69 | 108 | 1.0 | 6.0 | 0.00 | 0.00 | 0.00 | 47 | 1030.7 |
| 20260504234057 | 69 | 236 | 2.0 | 7.0 | 0.00 | 0.00 | 0.00 | 46 | 1030.6 |
| 20260504233557 | 69 | 115 | 2.0 | 9.0 | 0.00 | 0.00 | 0.00 | 46 | 1030.6 |
| 20260504233108 | 70 | 16 | 2.0 | 9.0 | 0.00 | 0.00 | 0.00 | 45 | 1030.5 |
| 20260504232556 | 70 | 125 | 2.0 | 6.0 | 0.00 | 0.00 | 0.00 | 45 | 1030.6 |
| 20260504232056 | 70 | 237 | 0.0 | 4.0 | 0.00 | 0.00 | 0.00 | 46 | 1030.7 |
| 20260504231604 | 70 | 95 | 1.0 | 9.0 | 0.00 | 0.00 | 0.00 | 44 | 1030.5 |
| 20260504231055 | 70 | 273 | 3.0 | 9.0 | 0.00 | 0.00 | 0.00 | 44 | 1030.5 |